Tracking 19476 objects as of 17-Jan-2019
HD Live streaming from Space Station
objects crossing your sky now

STTW-2

Track STTW-2 now!
STTW-2 is classified as:


NORAD ID: 18922
Int'l Code: 1988-014A
Perigee: 35,788.2 km
Apogee: 35,816.7 km
Inclination: 15.1 °
Period: 1,436.5 minutes
Semi major axis: 42173 km
RCS: 10.0237 m2 (large)
Launch date: March 7, 1988
Source: People's Republic of China (PRC)
Launch site: Xichang Space Center, China (XSC)
aabbcc
Your satellite tracking list
Your tracking list is empty




NASA's NSSDC Master Catalog

Two Line Element Set (TLE):
1 18922U 88014A   19016.48312925 -.00000074  00000-0  00000+0 0  9995
2 18922  15.1004   2.2167 0003380  34.9093 325.1408  1.00240756112951
Source of the keplerian elements: AFSPC